Simultaneous Nadir Overpasses (SNOs) Predictions

Prediction of SNOs between GOES-17 and NOAA-19 Satellite Orbit:

Table of predicted SNOs for the next 14.0 days since TLE Epoch: 11/1/2019
Index Date Time (GOES-17) GOES-17 Lat,Lon NOAA-19 Lat,Lon Distance(km) Time Diff (sec)
1 11/02/2019 14:12:50 -0.00,-137.21 -0.87,-133.49 424.66 80
2 11/04/2019 02:45:37 0.00,-137.20 -0.96,-141.33 472.27 80
3 11/05/2019 02:31:18 0.00,-137.20 -0.33,-138.48 147.93 80
4 11/06/2019 02:22:19 0.00,-137.19 0.37,-135.65 176.43 80
5 11/08/2019 14:40:41 -0.00,-137.18 0.82,-140.61 393.06 80
6 11/09/2019 14:29:03 -0.00,-137.17 0.14,-137.77 69.21 80
7 11/10/2019 14:20:04 -0.00,-137.16 -0.54,-134.93 254.50 80
8 11/13/2019 02:38:30 -0.00,-137.12 -0.65,-139.92 319.43 80
9 11/14/2019 02:26:51 -0.01,-137.10 -0.01,-137.07 3.89 80
10 11/15/2019 02:17:51 -0.01,-137.08 0.63,-134.22 326.70 80




NCC Satellite Simultaneous Nadir Overpasses (SNOs) Prediction Service
